sat.trackr.live / text

‹ back to catalog

STARLINK-31382

NORAD 59184 · 2024-045G

PAYLOAD ACTIVE UNKNOWN

§ Identity

Operator
Country
US
Launch date
2024-03-10
Launch site
AFETR
Launch vehicle
Mass (kg)
RCS (m²)

Purposes: comms

External: N2YO · Heavens-Above · Gunter

§ Orbital elements

Epoch: 2026-09-20T22:06:48.908160Z

Period
94.27 min
Inclination
43.0082°
Eccentricity
0.0002544
Mean motion
15.27556734 rev/d
Perigee alt
481.4 km
Apogee alt
484.9 km
Semi-major
6,861.3 km
B*
1.6427e-4
RAAN
69.6265°
Arg perigee
273.0253°
Mean anomaly
87.0308°
Rev number
14,302

§ Raw data

STARLINK-313821 59184U 24045G   26263.92139940  .00004257  00000+0  16427-3 0  99982 59184  43.0082  69.6265 0002544 273.0253  87.0308 15.27556734143028

JSON: /api/v1/satellites/59184 · /tle

For live sub-satellite position, see the globe view (requires WebGL).

§ Visibility from observer

Set your observer location to see the next 7 days of passes ≥ 10°. The values pass through the URL so the page stays shareable.

No JS? Fill the form by hand. The geolocation button needs JavaScript.